User: anonymous   Login
Location: Unspecified
(0.0000°N, 0.0000°E)
Time: 14:50:17
(UTC+00:00)
Language:

ATS 3 - Orbit

View from above orbital plane
View from above orbital plane
View from above satellite
View from above satellite

Ground track
Ground track

The orbit data is extracted from the following two-line orbital elements,

1  3029U 67111A   17205.60862431 -.00000110 +00000-0 +00000-0 0  9998
2  3029 004.6706 298.0155 0013947 123.9388 354.5609 01.00271947182056
Epoch (UTC): 24 July 2017 14:36:25
Eccentricity: 0.0013947
inclination: 4.6706°
perigee height: 35727 km
apogee height: 35845 km
right ascension of ascending node: 298.0155°
argument of perigee: 123.9388°
revolutions per day: 1.00271947
mean anomaly at epoch: 354.5609°
orbit number at epoch: 18205

The dashed part of the orbit path shows where the satellite is in the earth's shadow,  

DLR